[[{"header":{"parameterUnit":"m.s-1","parameterCategory":1,"la1":30.2991,"la2":30.254,"lo1":-89.0895,"lo2":-89.0444,"dy":0.0017,"dx":0.0017,"nx":28,"ny":28,"refTime":"2023-10-28T21:00:00:Z","depth":0,"parameterNumber":2,"parameterNumberName":"U-component_of_WINDS"},"data":[0,0,0,0,0,0,0,0,0,0,0,0,0,0,0,0,0,0,0,0,0,0,0,0,0,0,0,0,0,0,0,0,0,0,0,0,0,0,0,0,0,0,0,0,0,0,0,0,0,0,0,0,0,0,0,0,0,0,-2.8106,-2.8106,0,-2.815,-2.8151,-2.8151,-2.8099,-2.8097,-2.8096,-2.8094,-2.8138,-2.8141,-2.8144,0,0,0,0,0,0,0,0,0,0,0,0,0,-2.7977,-2.798,-2.8106,-2.8106,-2.8107,-2.815,-2.8151,-2.8151,-2.81,-2.8097,-2.8095,-2.8093,-2.8137,-2.814,-2.8144,0,0,0,0,0,0,0,0,0,0,0,0,0,-2.8029,-2.7981,-2.8106,-2.8086,-2.8085,-2.815,-2.8151,-2.8152,-2.81,-2.8097,-2.8094,-2.8092,-2.8136,-2.814,-2.8144,-2.823,0,0,-2.8158,-2.816,0,0,0,0,0,0,0,0,-2.8026,-2.8033,-2.8089,-2.8088,-2.8087,-2.8116,-2.8122,-2.8178,-2.8101,-2.8094,-2.8094,-2.809,-2.8133,-2.8137,-2.8152,-2.8232,-2.8234,-2.8158,-2.8161,-2.8163,-2.8164,0,0,0,0,0,0,0,-2.8022,-2.8031,-2.8123,-2.809,-2.8088,-2.8076,-2.808,-2.8132,-2.8129,-2.8095,-2.8091,-2.8097,-2.8132,-2.8148,-2.8153,-2.8235,-2.8158,-2.8162,-2.8165,-2.8167,-2.839,-2.8393,0,0,0,0,0,0,-2.8021,-2.8029,-2.8122,-2.8125,-2.8048,-2.8081,-2.8085,-2.811,-2.8129,-2.8129,-2.81,-2.8095,-2.8142,-2.8148,-2.8154,-2.8256,-2.8163,-2.8167,-2.817,-2.8387,-2.839,-2.8394,0,0,0,0,0,0,-2.8018,-2.803,-2.812,-2.8076,-2.8086,-2.8086,-2.8114,-2.8112,-2.8128,-2.8132,-2.8132,-2.8117,-2.814,-2.8148,-2.8212,-2.8257,-2.8169,-2.8173,-2.8383,-2.8388,-2.8392,-2.8461,0,0,0,0,0,0,-2.8015,-2.8029,-2.8061,-2.8077,-2.8089,-2.8177,-2.8117,-2.8115,-2.8136,-2.813,-2.8148,-2.8148,-2.8138,-2.8206,-2.8217,-2.8262,-2.8177,-2.8379,-2.8385,-2.8391,-2.8455,-2.8468,-2.8479,0,0,0,0,0,-2.8011,-2.8078,-2.8063,-2.8075,-2.8129,-2.818,-2.8187,-2.8174,-2.814,-2.8172,-2.8176,-2.8148,-2.8251,-2.8213,-2.8225,-2.8272,-2.8376,-2.8383,-2.839,-2.845,-2.8466,-2.8479,0,0,0,0,0,0,-2.8066,-2.808,-2.8063,-2.8138,-2.8158,-2.8171,-2.8211,-2.8191,-2.8221,-2.8214,-2.8197,-2.8201,-2.827,-2.8278,-2.8235,-2.8357,-2.8308,-2.8318,-2.8349,-2.8364,-2.8376,-2.8372,-2.818,0,0,0,0,0,-2.8087,-2.8128,-2.8137,-2.8202,-2.8214,-2.8211,-2.8233,-2.8222,-2.8242,-2.825,-2.8258,-2.8279,-2.8316,-2.8341,-2.8375,-2.8457,-2.8461,-2.8496,-2.8508,-2.8518,-2.8526,-2.8571,-2.8587,-2.8418,-2.8418,-2.8418,0,0,-2.8131,-2.8143,-2.8169,-2.8214,-2.8228,-2.8271,-2.8219,-2.8265,-2.8297,-2.8257,-2.8318,-2.8326,-2.8348,-2.8422,-2.8455,-2.843,-2.8574,-2.8527,-2.8535,-2.8537,-2.858,-2.8596,-2.861,-2.8423,-2.8422,-2.8421,0,0,-2.8232,-2.8245,-2.8301,-2.8318,-2.8342,-2.834,-2.8354,-2.8371,-2.8375,-2.8436,-2.8408,-2.8446,-2.851,-2.8528,-2.8545,-2.8658,-2.8633,-2.867,-2.8732,-2.8776,-2.8789,-2.8801,-2.8841,-2.8856,-2.8678,-2.8678,-2.8679,0,-2.8282,-2.8345,-2.8333,-2.8383,-2.8403,-2.8372,-2.8429,-2.8446,-2.8479,-2.8495,-2.8467,-2.8549,-2.8562,-2.864,-2.8668,-2.8683,-2.8699,-2.8666,-2.8788,-2.88,-2.8811,-2.8849,-2.8864,-2.8683,-2.8682,-2.8682,-2.8681,0,-2.8407,-2.8452,-2.8494,-2.8529,-2.8555,-2.8608,-2.8604,-2.8633,-2.8621,-2.8623,-2.8687,-2.8702,-2.874,-2.8758,-2.8746,-2.8836,-2.882,-2.8791,-2.8741,-2.8831,-2.8867,-2.8881,-2.8689,-2.8687,-2.8686,-2.8685,0,0,-2.854,-2.857,-2.8586,-2.8602,-2.8628,-2.8662,-2.8715,-2.8753,-2.8778,-2.8804,-2.8848,-2.8905,-2.888,-2.8899,-2.889,-2.8929,-2.9018,-2.8895,-2.8896,-2.8917,-2.9118,-2.9139,-2.9156,-2.9003,-2.9006,-2.9008,-2.9116,0,-2.8641,-2.8733,-2.8725,-2.8812,-2.8854,-2.8826,-2.8873,-2.8894,-2.8898,-2.8935,-2.8939,-2.898,-2.8943,-2.8956,-2.8993,-2.8999,-2.9058,-2.8991,-2.9044,-2.9046,-2.9037,-2.9174,-2.9196,-2.9297,-2.913,-2.9133,-2.9134,0,-2.877,-2.8802,-2.8893,-2.8915,-2.8932,-2.8974,-2.901,-2.9045,-2.907,-2.907,-2.9095,-2.9079,-2.9134,-2.9085,-2.916,-2.9115,-2.9137,-2.9143,-2.9147,-2.915,-2.9094,-2.918,-2.9329,-2.9344,-2.9156,-2.9154,-2.9153,0,-2.8857,-2.8923,-2.8987,-2.9002,-2.9029,-2.9059,-2.9072,-2.9094,-2.9118,-2.915,-2.9166,-2.9204,-2.9224,-2.9254,-2.9249,-2.9214,-2.9326,-2.9276,-2.9328,-2.9328,-2.9351,-2.9349,-2.9504,-2.9367,-2.9367,-2.9367,-2.9367,0,-2.897,-2.9027,-2.9027,-2.9066,-2.913,-2.9122,-2.9185,-2.9194,-2.9215,-2.9256,-2.9235,-2.9274,-2.9267,-2.9306,-2.9303,-2.9366,-2.9376,-2.9378,-2.9376,-2.9379,-2.9378,-2.9391,-2.9383,-2.9371,-2.937,-2.9369,-2.9369,0,-2.9077,-2.9079,-2.9147,-2.9169,-2.9176,-2.9222,-2.924,-2.9278,-2.9282,-2.9334,-2.9346,-2.9353,-2.9398,-2.9398,-2.9449,-2.9447,-2.9525,-2.9515,-2.9516,-2.9514,-2.9565,-2.956,-2.9732,-2.9755,-2.9605,-2.9606,-2.9608,0,-2.9147,-2.9191,-2.9218,-2.9245,-2.926,-2.9303,-2.9328,-2.9323,-2.9351,-2.9384,-2.9418,-2.9462,-2.9496,-2.9571,-2.958,-2.962,-2.9611,-2.9669,-2.9616,-2.9618,-2.9611,-2.9608,-2.9612,-2.9678,-2.968,-2.9681,-2.9682,0,-2.9273,-2.9273,-2.931,-2.935,-2.9381,-2.9412,-2.944,-2.9463,-2.9461,-2.9494,-2.9541,-2.9568,-2.9622,-2.9666,-2.9705,-2.9719,-2.9701,-2.9699,-2.9713,-2.9715,-2.9714,-2.9715,-2.9543,-2.9694,-2.9693,-2.9692,-2.9692,-2.9691,-2.9363,-2.9401,-2.9427,-2.9471,-2.9492,-2.952,-2.9557,-2.9567,-2.9606,-2.965,-2.9645,-2.9698,-2.9724,-2.9775,-2.9793,-2.9834,-2.9814,-2.9834,-2.9839,-2.9844,-2.9849,-2.9709,-2.9842,-2.9841,-2.9841,-2.9841,-2.984,0,-2.9486,-2.9503,-2.9543,-2.9584,-2.9619,-2.9602,-2.9633,-2.9663,-2.971,-2.9736,-2.9772,-2.9827,-2.9871,-2.9885,-2.9928,-2.9958,-2.9951,-2.997,-2.9966,-2.997,-2.9865,-2.9848,-2.9975,-2.9975,-2.9975,-2.9975,-2.9975,-2.9975,-2.9554,-2.9618,-2.9622,-2.9698,-2.9714,-2.9765,-2.9785,-2.9811,-2.9832,-2.9895,-2.9932,-2.9942,-2.9964,-3.0009,-3.0049,-3.0052,-3.0068,-3.009,-3.009,-2.9991,-2.9977,-2.9964,-2.9948,-3.0094,-3.0094,-3.0191,-3.0192,-3.0193]},{"header":{"parameterUnit":"m.s-1","parameterCategory":1,"la1":30.2991,"la2":30.254,"lo1":-89.0895,"lo2":-89.0444,"dy":0.0017,"dx":0.0017,"nx":28,"ny":28,"refTime":"2023-10-28T21:00:00:Z","depth":0,"parameterNumber":3,"parameterNumberName":"V-component_of_WINDS"},"data":[0,0,0,0,0,0,0,0,0,0,0,0,0,0,0,0,0,0,0,0,0,0,0,0,0,0,0,0,0,0,0,0,0,0,0,0,0,0,0,0,0,0,0,0,0,0,0,0,0,0,0,0,0,0,0,0,0,0,1.3676,1.3676,0,1.3658,1.3657,1.3657,1.3606,1.3605,1.3604,1.3603,1.358,1.3581,1.3581,0,0,0,0,0,0,0,0,0,0,0,0,0,1.3666,1.3667,1.3676,1.3676,1.3676,1.3658,1.3657,1.3657,1.3606,1.3605,1.3603,1.3602,1.358,1.358,1.3581,0,0,0,0,0,0,0,0,0,0,0,0,0,1.3662,1.3667,1.3676,1.3648,1.3645,1.3658,1.3657,1.3657,1.3606,1.3605,1.3603,1.3601,1.358,1.358,1.3581,1.3618,0,0,1.3583,1.3583,0,0,0,0,0,0,0,0,1.3662,1.3662,1.3652,1.365,1.3647,1.3632,1.3646,1.3644,1.3607,1.3621,1.3603,1.3601,1.3599,1.3598,1.3598,1.3617,1.3616,1.3583,1.3583,1.3584,1.3584,0,0,0,0,0,0,0,1.3662,1.3662,1.3669,1.3652,1.3649,1.3636,1.3634,1.3645,1.3619,1.362,1.3616,1.3615,1.3597,1.3597,1.3597,1.3616,1.3583,1.3584,1.3584,1.3584,1.3669,1.3671,0,0,0,0,0,0,1.3667,1.3663,1.3669,1.3668,1.3651,1.3638,1.3635,1.3639,1.3619,1.3614,1.3616,1.3612,1.3597,1.3596,1.3596,1.364,1.3584,1.3584,1.3585,1.3667,1.3669,1.3671,0,0,0,0,0,0,1.3667,1.3668,1.367,1.3665,1.3664,1.364,1.3644,1.3639,1.3639,1.3616,1.3611,1.3621,1.3596,1.3595,1.3614,1.3639,1.3585,1.3585,1.3665,1.3668,1.367,1.3728,0,0,0,0,0,0,1.3667,1.3668,1.3682,1.3665,1.3664,1.3689,1.3646,1.364,1.3641,1.3636,1.362,1.3615,1.3594,1.3613,1.3615,1.3639,1.3586,1.3662,1.3666,1.3669,1.3724,1.3733,1.374,0,0,0,0,0,1.3667,1.3697,1.3683,1.3684,1.3681,1.369,1.369,1.3666,1.3643,1.3657,1.3643,1.3616,1.3636,1.3616,1.3617,1.3641,1.3661,1.3665,1.3669,1.372,1.3731,1.374,0,0,0,0,0,0,1.3714,1.3694,1.3678,1.3704,1.37,1.3682,1.3698,1.3677,1.3677,1.3672,1.3642,1.3639,1.3663,1.3654,1.3632,1.3678,1.3644,1.3649,1.3683,1.3693,1.3701,1.3702,1.3586,0,0,0,0,0,1.3728,1.3738,1.372,1.3745,1.3744,1.3722,1.3724,1.3707,1.37,1.3698,1.3685,1.3679,1.3684,1.3688,1.3691,1.3723,1.372,1.3741,1.3749,1.3756,1.376,1.3779,1.3789,1.3685,1.3685,1.3685,0,0,1.3756,1.3747,1.3754,1.3754,1.3749,1.376,1.372,1.3732,1.3741,1.3699,1.3718,1.3708,1.37,1.3727,1.3738,1.372,1.3788,1.3761,1.3767,1.3767,1.3785,1.3795,1.3803,1.3688,1.3687,1.3687,0,0,1.3813,1.3807,1.3828,1.3825,1.3818,1.3804,1.381,1.3796,1.3789,1.3808,1.3778,1.3787,1.3796,1.3793,1.3792,1.3854,1.383,1.3856,1.3897,1.3917,1.3925,1.3932,1.3956,1.3965,1.386,1.386,1.386,0,1.3849,1.3865,1.3842,1.3858,1.386,1.3826,1.3848,1.3845,1.384,1.3842,1.3823,1.3837,1.3828,1.3855,1.3871,1.3871,1.3877,1.3857,1.3926,1.3933,1.3939,1.3962,1.3971,1.3863,1.3863,1.3863,1.3862,0,1.391,1.3922,1.3941,1.3939,1.3943,1.3962,1.3942,1.3949,1.3933,1.3921,1.3942,1.3932,1.3934,1.394,1.3922,1.3965,1.3955,1.3932,1.3897,1.3953,1.3974,1.3982,1.3868,1.3867,1.3866,1.3865,0,0,1.3993,1.3983,1.399,1.3991,1.3983,1.3992,1.4011,1.4015,1.4023,1.4021,1.4037,1.4048,1.4028,1.4027,1.4009,1.4027,1.408,1.4001,1.4,1.4017,1.413,1.4148,1.4159,1.4064,1.4066,1.4067,1.4131,0,1.4049,1.4081,1.4063,1.4098,1.4111,1.4081,1.4098,1.4096,1.4086,1.4096,1.4085,1.4094,1.4065,1.4066,1.4081,1.407,1.4102,1.4065,1.4079,1.408,1.4083,1.4169,1.4187,1.4248,1.4139,1.414,1.4141,0,1.4117,1.4122,1.4159,1.4154,1.4158,1.4174,1.4179,1.4188,1.4185,1.4178,1.418,1.416,1.4179,1.4146,1.4172,1.4148,1.4153,1.4149,1.4151,1.4151,1.4114,1.4173,1.4267,1.4276,1.4153,1.4152,1.4151,0,1.4177,1.4192,1.4218,1.4219,1.4212,1.4224,1.4222,1.4218,1.4224,1.4228,1.4232,1.4237,1.4241,1.4246,1.4228,1.4205,1.4259,1.4223,1.4253,1.4254,1.4265,1.4265,1.4362,1.4268,1.4268,1.4268,1.4267,0,1.424,1.4265,1.4245,1.426,1.4288,1.4268,1.4295,1.4289,1.4287,1.4302,1.4276,1.429,1.4266,1.4278,1.4264,1.429,1.4291,1.4286,1.4282,1.4289,1.429,1.4291,1.4287,1.427,1.4269,1.4269,1.4269,0,1.4311,1.4298,1.4324,1.4318,1.4317,1.4338,1.4332,1.4346,1.4337,1.4356,1.436,1.4345,1.4358,1.4342,1.4352,1.4343,1.4379,1.4368,1.4381,1.4378,1.441,1.4408,1.4512,1.4526,1.4422,1.4423,1.4424,0,1.4352,1.4371,1.4368,1.4377,1.4378,1.4392,1.4398,1.438,1.4388,1.439,1.4405,1.4417,1.4425,1.4448,1.4438,1.4447,1.4437,1.4473,1.4438,1.4445,1.4439,1.4439,1.4442,1.448,1.4481,1.4482,1.4483,0,1.4429,1.4423,1.4434,1.4445,1.4454,1.4461,1.4466,1.4475,1.4456,1.4467,1.4481,1.4488,1.4502,1.4514,1.4522,1.4519,1.4499,1.4495,1.4503,1.451,1.4517,1.4515,1.4401,1.4492,1.4491,1.4491,1.449,1.449,1.4487,1.4504,1.4506,1.452,1.4523,1.4529,1.4544,1.4538,1.4551,1.4562,1.455,1.4569,1.457,1.4578,1.4579,1.4594,1.4578,1.4588,1.4591,1.4595,1.46,1.4515,1.4595,1.4594,1.4594,1.4594,1.4594,0,1.4563,1.4564,1.4578,1.4588,1.46,1.4582,1.4588,1.4599,1.4617,1.462,1.463,1.4649,1.4662,1.4655,1.4667,1.4681,1.4672,1.4684,1.4683,1.4684,1.4613,1.4606,1.4692,1.4692,1.4692,1.4692,1.4692,1.4692,1.4604,1.4633,1.4628,1.4659,1.4659,1.4679,1.4684,1.4691,1.4694,1.4717,1.4729,1.4725,1.4725,1.4737,1.475,1.4747,1.4753,1.477,1.4764,1.4698,1.4688,1.4679,1.4672,1.4771,1.4771,1.4834,1.4834,1.4835]}]]